Location: Poughquag
(41.6090°N, 73.6820°W)
Time: 18:53:28
(UTC-04:00)

MOZHAYETS 4 - Pass Details

Date: 19 August 2024
Orbit: 650 x 668 km, 98.3° (Epoch: 15 September)

Event Time Altitude Azimuth Distance (km) Brightness Sun altitude
Rises 03:11:32 0° 123° (ESE) 3,004 11.1 -27.7°
Reaches altitude 10° 03:14:25 10° 104° (ESE) 2,096 10.5 -27.4°
Maximum altitude 03:17:21 17° 63° (ENE) 1,673 10.4 -27.1°
Drops below altitude 10° 03:20:18 10° 23° (NNE) 2,104 11.2 -26.7°
Sets 03:23:11 0° 4° (N) 3,021 11.9 -26.4°
